This is the latest recevied weather packets stored in our database for station/object W6ORV. If no packets are shown the sender has not sent any weather packets the latest 10 day(s).
| Time | Temp. | Humidity | Pressure | Rain* | Wind** | Luminosity | Snow |
|---|---|---|---|---|---|---|---|
| 1777579437 | 26.11° C | 35% | 4297.6 hPa | 0 mm | - | 725 W/m² | - |
| 1777579133 | 27.22° C | 34% | 4297.7 hPa | 0 mm | - | 700 W/m² | - |
| 1777578529 | 25.56° C | 35% | 4298 hPa | 0 mm | - | 744 W/m² | - |
| 1777577312 | 25° C | 38% | 4298.2 hPa | 0 mm | - | 799 W/m² | - |
| 1777577008 | 25° C | 38% | 4298.4 hPa | 0 mm | - | 773 W/m² | - |
| 1777573669 | 23.33° C | 44% | 4299.1 hPa | 0 mm | - | 830 W/m² | - |
| 1777573366 | 22.78° C | 45% | 4299.1 hPa | 0 mm | - | 833 W/m² | - |
| 1777570635 | 20° C | 58% | 4299.4 hPa | 0 mm | - | 801 W/m² | - |
| 1777569724 | 19.44° C | 58% | 4299.9 hPa | 0 mm | - | 809 W/m² | - |
| 1777568207 | 17.22° C | 66% | 4299.7 hPa | 0 mm | - | 711 W/m² | - |
| 1777566088 | 16.11° C | 71% | 4299.7 hPa | 0 mm | - | 550 W/m² | - |
| 1777565176 | 15° C | 75% | 4299.9 hPa | 0 mm | - | 413 W/m² | - |
| 1777564263 | 13.89° C | 76% | 4299.7 hPa | 0 mm | - | 344 W/m² | - |
| 1777563356 | 13.89° C | 79% | 4299.9 hPa | 0 mm | - | 308 W/m² | - |
| 1777563052 | 12.78° C | 82% | 4300.1 hPa | 0 mm | - | 294 W/m² | - |
| 1777562748 | 12.78° C | 81% | 4300.2 hPa | 0 mm | - | 247 W/m² | - |
| 1777562447 | 12.22° C | 84% | 4300.1 hPa | 0 mm | - | 230 W/m² | - |
| 1777561233 | 11.11° C | 87% | 4299.8 hPa | 0 mm | - | 180 W/m² | - |
| 1777560932 | 10.56° C | 87% | 4299.9 hPa | 0 mm | - | 164 W/m² | - |
| 1777558809 | 7.78° C | 96% | 4300.2 hPa | 0 mm | - | 58 W/m² | - |
| 1777557897 | 6.67° C | 96% | 4300 hPa | 0 mm | - | 32 W/m² | - |
| 1777556080 | 6.11° C | 96% | 4299.8 hPa | 0 mm | - | 14 W/m² | - |
| 1777555779 | 6.11° C | 96% | 4299.7 hPa | 0 mm | - | 12 W/m² | - |
| 1777555172 | 6.11° C | 96% | 4299.5 hPa | 0 mm | - | 6 W/m² | - |
| 1777554870 | 6.11° C | 96% | 4299.4 hPa | 0 mm | - | 3 W/m² | - |
* Rain latest hour (hover to see other rain measurements)
** Current wind speed in m/s (hover to see current wind gust speed)